Location: Hac?musa Deresi
(39.1694°N, 32.2508°E)
Time: 10:41:09
(UTC+00:00)

USA 238 DEB - Pass Details

Date: 22 April 2026
Orbit: 883 x 1328 km, 63.4° (Epoch: 10 January)

Event Time Altitude Azimuth Distance (km) Brightness Sun altitude
Rises 16:52:39 0° 328° (NNW) 3,997 7.6 -4.1°
Reaches altitude 10° 16:55:18 10° 332° (NNW) 3,094 6.9 -4.5°
Maximum altitude 17:02:47 63° 53° (NE) 1,386 4.2 -5.9°
Drops below altitude 10° 17:10:49 10° 134° (SE) 3,326 5.7 -7.3°
Enters shadow 17:12:04 - 135° (SE) 3,743 6.0 -7.6°
